User: anonymous   Login
Location: Cherry Road
(34.5193°N, 112.0852°W)
Time: 12:47:24
(UTC-07:00)
Language:

Hubble Space Telescope - Orbit

View from above orbital plane
View from above orbital plane
View from above satellite
View from above satellite

Ground track
Ground track

The orbit data is extracted from the following two-line orbital elements,

1 20580U 90037B   17020.97139375 +.00000502 +00000-0 +20022-4 0  9995
2 20580 028.4693 260.2101 0002811 033.1357 087.8559 15.08649653267942
Epoch (UTC): 20 January 2017 23:18:48
Eccentricity: 0.0002811
inclination: 28.4693°
perigee height: 538 km
apogee height: 542 km
right ascension of ascending node: 260.2101°
argument of perigee: 33.1357°
revolutions per day: 15.08649653
mean anomaly at epoch: 87.8559°
orbit number at epoch: 26794

The dashed part of the orbit path shows where the satellite is in the earth's shadow,  

DLR